Horseshoe Bay, TX

1:26 PM CST on February 25, 2017 (GMT -0600)
Horseshoe Bay

Weather History for KDZB - April, 2013

Change the Weather History Date:

Wednesday, April 24, 2013

  Actual Average (KBMQ) Record (KBMQ)
Temperature  
Mean Temperature 51 °F -  
Max Temperature 60 °F 77 °F 93 °F (2014)
Min Temperature 42 °F 56 °F 42 °F (2013)
Degree Days  
Heating Degree Days 14    
Growing Degree Days 1 (Base 50)    
Moisture  
Dew Point 33 °F    
Average Humidity 52    
Maximum Humidity 76    
Minimum Humidity 34    
Precipitation  
Precipitation 0.00 in - - ()
Sea Level Pressure  
Sea Level Pressure 30.23 in    
Wind  
Wind Speed 11 mph (NNE)    
Max Wind Speed 16 mph    
Max Gust Speed 26 mph    
Visibility 10 miles    
Events      
Averages and records for this station are not official NWS values.
T = Trace of Precipitation, MM = Missing Value Source: NWS Daily Summary

Daily Weather History Graph

Daily Weather History Graph

Search for Another Location

Airport or City:

Trip Planner

Search our weather history database for the weather conditions in past years. The results will help you decide how hot, cold, wet, or windy it might be!

Date:

Astronomy

Apr. 24, 2013 Rise Set
Actual Time 5:56 AM MDT 7:07 PM MDT
Civil Twilight 5:31 AM MDT 7:32 PM MDT
Nautical Twilight 5:01 AM MDT 8:02 PM MDT
Astronomical Twilight 4:30 AM MDT 8:33 PM MDT
Moon 6:14 PM MDT (4/24) 4:56 AM MDT (4/24)
Length of Visible Light 14h 01m
Length of Day
13h 11m
Waxing Gibbous, 98% of the Moon is Illuminated
Apr 24
Waxing Gibbous
Apr 25
Full
May 2
Last Quarter
May 9
New
May 17
First Quarter

Hourly Weather History & Observations

Time (MDT) Temp. Windchill Dew Point Humidity Pressure Visibility Wind Dir Wind Speed Gust Speed Precip Events Conditions
12:15 AM 46.4 °F 40.7 °F 37.4 °F 71% 30.17 in 10.0 mi North 12.7 mph 21.9 mph N/A   Overcast
12:35 AM 46.4 °F 41.5 °F 37.4 °F 71% 30.17 in 10.0 mi North 10.4 mph 24.2 mph N/A   Overcast
12:55 AM 44.6 °F 37.8 °F 37.4 °F 76% 30.18 in 10.0 mi North 15.0 mph 20.7 mph N/A   Overcast
1:15 AM 44.6 °F 38.1 °F 37.4 °F 76% 30.19 in 10.0 mi North 13.8 mph 19.6 mph N/A   Overcast
1:35 AM 44.6 °F 37.8 °F 35.6 °F 71% 30.19 in 10.0 mi North 15.0 mph 24.2 mph N/A   Overcast
1:55 AM 44.6 °F 38.4 °F 35.6 °F 71% 30.20 in 10.0 mi North 12.7 mph 26.5 mph N/A   Overcast
2:15 AM 44.6 °F 38.1 °F 35.6 °F 71% 30.20 in 10.0 mi North 13.8 mph 23.0 mph N/A   Overcast
2:35 AM 42.8 °F 35.8 °F 35.6 °F 76% 30.21 in 10.0 mi North 13.8 mph 21.9 mph N/A   Overcast
2:55 AM 42.8 °F 38.6 °F 35.6 °F 76% 30.20 in 10.0 mi NNW 6.9 mph - N/A   Overcast
3:15 AM 42.8 °F 37.5 °F 35.6 °F 76% 30.20 in 10.0 mi NNW 9.2 mph - N/A   Overcast
3:35 AM 44.6 °F 39.7 °F 35.6 °F 71% 30.21 in 10.0 mi North 9.2 mph - N/A   Overcast
3:55 AM 42.8 °F 35.1 °F 33.8 °F 70% 30.22 in 10.0 mi NNW 16.1 mph 20.7 mph N/A   Overcast
4:15 AM 42.8 °F 35.1 °F 33.8 °F 70% 30.22 in 10.0 mi NNW 16.1 mph 23.0 mph N/A   Overcast
4:35 AM 42.8 °F 36.6 °F 33.8 °F 70% 30.22 in 10.0 mi North 11.5 mph 24.2 mph N/A   Overcast
4:55 AM 42.8 °F 35.8 °F 33.8 °F 70% 30.22 in 10.0 mi North 13.8 mph 19.6 mph N/A   Overcast
5:15 AM 42.8 °F 36.6 °F 33.8 °F 70% 30.22 in 10.0 mi North 11.5 mph 18.4 mph N/A   Overcast
5:35 AM 42.8 °F 35.8 °F 32.0 °F 66% 30.23 in 10.0 mi NNW 13.8 mph 18.4 mph N/A   Overcast
5:55 AM 42.8 °F 36.2 °F 32.0 °F 66% 30.24 in 10.0 mi North 12.7 mph 20.7 mph N/A   Overcast
6:15 AM 42.8 °F 36.2 °F 32.0 °F 66% 30.24 in 10.0 mi North 12.7 mph 18.4 mph N/A   Overcast
6:35 AM 42.8 °F 37.5 °F 32.0 °F 66% 30.26 in 10.0 mi North 9.2 mph 17.3 mph N/A   Mostly Cloudy
6:55 AM 42.8 °F 36.6 °F 32.0 °F 66% 30.27 in 10.0 mi North 11.5 mph 20.7 mph N/A   Mostly Cloudy
7:15 AM 42.8 °F 35.1 °F 32.0 °F 66% 30.28 in 10.0 mi North 16.1 mph 23.0 mph N/A   Scattered Clouds
7:35 AM 42.8 °F 36.2 °F 32.0 °F 66% 30.28 in 10.0 mi North 12.7 mph 20.7 mph N/A   Scattered Clouds
7:55 AM 42.8 °F 37.0 °F 32.0 °F 66% 30.28 in 10.0 mi North 10.4 mph 20.7 mph N/A   Mostly Cloudy
8:15 AM 44.6 °F 38.4 °F 32.0 °F 61% 30.28 in 10.0 mi North 12.7 mph 20.7 mph N/A   Scattered Clouds
8:35 AM 44.6 °F 38.8 °F 32.0 °F 61% 30.27 in 10.0 mi North 11.5 mph 18.4 mph N/A   Scattered Clouds
8:55 AM 46.4 °F 40.7 °F 32.0 °F 57% 30.28 in 10.0 mi North 12.7 mph 19.6 mph N/A   Clear
9:15 AM 46.4 °F 40.7 °F 30.2 °F 53% 30.28 in 10.0 mi NNW 12.7 mph 17.3 mph N/A   Clear
9:35 AM 48.2 °F - 30.2 °F 50% 30.28 in 10.0 mi North 12.7 mph 17.3 mph N/A   Clear
9:55 AM 46.4 °F 42.4 °F 30.2 °F 53% 30.28 in 10.0 mi North 8.1 mph 16.1 mph N/A   Mostly Cloudy
10:15 AM 48.2 °F - 30.2 °F 50% 30.28 in 10.0 mi North 11.5 mph 18.4 mph N/A   Overcast
10:35 AM 50.0 °F - 30.2 °F 47% 30.27 in 10.0 mi North 13.8 mph 17.3 mph N/A   Overcast
10:55 AM 51.8 °F - 32.0 °F 47% 30.27 in 10.0 mi North 12.7 mph 17.3 mph N/A   Overcast
11:15 AM 53.6 °F - 32.0 °F 44% 30.27 in 10.0 mi North 8.1 mph - N/A   Overcast
11:35 AM 53.6 °F - 32.0 °F 44% 30.26 in 10.0 mi North 8.1 mph 16.1 mph N/A   Overcast
11:55 AM 53.6 °F - 32.0 °F 44% 30.26 in 10.0 mi North 6.9 mph - N/A   Overcast
12:15 PM 53.6 °F - 32.0 °F 44% 30.24 in 10.0 mi NNE 5.8 mph - N/A   Overcast
12:55 PM 55.4 °F - 32.0 °F 41% 30.24 in 10.0 mi North 5.8 mph - N/A   Overcast
1:15 PM 55.4 °F - 32.0 °F 41% 30.23 in 10.0 mi North 8.1 mph - N/A   Overcast
1:35 PM 55.4 °F - 32.0 °F 41% 30.21 in 10.0 mi North 8.1 mph - N/A   Overcast
1:55 PM 59.0 °F - 32.0 °F 36% 30.20 in 10.0 mi North 11.5 mph 17.3 mph N/A   Overcast
2:15 PM 60.8 °F - 32.0 °F 34% 30.20 in 10.0 mi North 6.9 mph 16.1 mph N/A   Scattered Clouds
2:35 PM 60.8 °F - 32.0 °F 34% 30.20 in 10.0 mi North 4.6 mph 17.3 mph N/A   Scattered Clouds
2:55 PM 60.8 °F - 32.0 °F 34% 30.19 in 10.0 mi North 6.9 mph - N/A   Mostly Cloudy
3:15 PM 60.8 °F - 32.0 °F 34% 30.19 in 10.0 mi NNE 6.9 mph - N/A   Mostly Cloudy
3:35 PM 60.8 °F - 32.0 °F 34% 30.18 in 10.0 mi North 5.8 mph - N/A   Overcast
3:55 PM 60.8 °F - 32.0 °F 34% 30.18 in 10.0 mi North 8.1 mph - N/A   Overcast
4:15 PM 60.8 °F - 32.0 °F 34% 30.18 in 10.0 mi NNE 4.6 mph - N/A   Overcast
4:55 PM 60.8 °F - 32.0 °F 34% 30.18 in 10.0 mi NNE 4.6 mph - N/A   Overcast
5:15 PM 60.8 °F - 32.0 °F 34% 30.18 in 10.0 mi NNE 8.1 mph - N/A   Overcast
5:35 PM 60.8 °F - 32.0 °F 34% 30.17 in 10.0 mi NE 8.1 mph - N/A   Overcast
5:55 PM 60.8 °F - 32.0 °F 34% 30.17 in 10.0 mi NE 6.9 mph - N/A   Overcast
6:15 PM 60.8 °F - 32.0 °F 34% 30.18 in 10.0 mi NE 6.9 mph - N/A   Overcast
6:35 PM 59.0 °F - 32.0 °F 36% 30.18 in 10.0 mi ENE 3.5 mph - N/A   Overcast
6:55 PM 59.0 °F - 32.0 °F 36% 30.18 in 10.0 mi ENE 5.8 mph - N/A   Overcast
7:15 PM 59.0 °F - 32.0 °F 36% 30.19 in 10.0 mi ENE 5.8 mph - N/A   Overcast
7:35 PM 59.0 °F - 33.8 °F 39% 30.19 in 10.0 mi ENE 3.5 mph - N/A   Overcast
7:55 PM 59.0 °F - 33.8 °F 39% 30.20 in 10.0 mi ENE 4.6 mph - N/A   Overcast
9:15 PM 55.4 °F - 35.6 °F 47% 30.25 in 10.0 mi ESE 4.6 mph - N/A   Overcast
9:35 PM 55.4 °F - 35.6 °F 47% 30.26 in 10.0 mi Calm Calm - N/A   Overcast
9:55 PM 55.4 °F - 35.6 °F 47% 30.26 in 10.0 mi ENE 3.5 mph - N/A   Overcast
10:15 PM 55.4 °F - 35.6 °F 47% 30.26 in 10.0 mi ESE 4.6 mph - N/A   Overcast
10:35 PM 55.4 °F - 35.6 °F 47% 30.27 in 10.0 mi Calm Calm - N/A   Overcast
10:55 PM 55.4 °F - 35.6 °F 47% 30.27 in 10.0 mi East 4.6 mph - N/A   Overcast
11:15 PM 55.4 °F - 35.6 °F 47% 30.27 in 10.0 mi East 4.6 mph - N/A   Overcast
11:35 PM 55.4 °F - 35.6 °F 47% 30.26 in 10.0 mi East 4.6 mph - N/A   Overcast
11:55 PM 55.4 °F - 35.6 °F 47% 30.26 in 10.0 mi East 4.6 mph - N/A   Overcast